Weather History for China Lake, CA

Change the Weather History Date:

Thursday, June 27, 2013

  Actual Average Record
Temperature  
Mean Temperature 90 °F -  
Max Temperature 108 °F 97 °F 108 °F (2013)
Min Temperature 73 °F 68 °F 59 °F (2012)
Cooling Degree Days 25    
Growing Degree Days 40 (Base 50)    
Moisture  
Dew Point 49 °F    
Average Humidity 26    
Maximum Humidity 44    
Minimum Humidity 11    
Precipitation  
Precipitation 0.00 in - - ()
Sea Level Pressure  
Sea Level Pressure 29.92 in    
Wind  
Wind Speed 6 mph (South)    
Max Wind Speed 14 mph    
Max Gust Speed 24 mph    
Visibility 10 miles    
Events      
Averages and records for this station are not official NWS values.
T = Trace of Precipitation, MM = Missing Value Source: NWS Daily Summary

Daily Weather History Graph

Daily Weather History Graph

Search for Another Location

Airport:

Trip Planner

Search our weather history database for the weather conditions in past years. The results will help you decide how hot, cold, wet, or windy it might be!

Date:

Astronomy

Jun. 27, 2013 Rise Set
Actual Time 5:37 AM PDT 8:10 PM PDT
Civil Twilight 5:07 AM PDT 8:40 PM PDT
Nautical Twilight 4:29 AM PDT 9:17 PM PDT
Astronomical Twilight 3:48 AM PDT 9:59 PM PDT
Moon 11:22 PM PDT (6/27) 10:32 AM PDT (6/27)
Length of Visible Light 15h 33m
Length of Day
14h 33m
Waning Gibbous, 75% of the Moon is Illuminated
Jun 27
Waning Gibbous
Jun 29
Last Quarter
Jul 8
New
Jul 15
First Quarter
Jul 22
Full

Hourly Weather History & Observations

Time (PDT) Temp. Heat Index Dew Point Humidity Pressure Visibility Wind Dir Wind Speed Gust Speed Precip Events Conditions
12:56 AM 82.9 °F - 52.0 °F 34% 29.88 in 10.0 mi SSW 8.1 mph - N/A   Clear
1:56 AM 82.0 °F 81.2 °F 53.1 °F 37% 29.88 in 10.0 mi South 11.5 mph - N/A   Clear
2:56 AM 80.1 °F - 52.0 °F 38% 29.89 in 10.0 mi SW 12.7 mph - N/A   Clear
3:56 AM 78.1 °F - 53.1 °F 42% 29.90 in 10.0 mi Calm Calm - N/A   Clear
4:56 AM 73.0 °F - 50.0 °F 44% 29.91 in 10.0 mi South 5.8 mph - N/A   Clear
5:56 AM 73.0 °F - 48.9 °F 42% 29.94 in 10.0 mi SSW 3.5 mph - N/A   Clear
6:56 AM 77.0 °F - 51.1 °F 40% 29.95 in 10.0 mi Calm Calm - N/A   Clear
7:56 AM 78.1 °F - 50.0 °F 37% 29.98 in 10.0 mi Calm Calm - N/A   Clear
8:56 AM 84.0 °F - 52.0 °F 33% 29.99 in 10.0 mi Calm Calm - N/A   Clear
9:56 AM 89.1 °F 86.7 °F 53.1 °F 29% 29.99 in 10.0 mi Variable 3.5 mph - N/A   Clear
10:56 AM 93.0 °F - 51.1 °F 24% 29.99 in 10.0 mi ESE 8.1 mph - N/A   Clear
11:56 AM 96.1 °F - 50.0 °F 21% 29.98 in 10.0 mi Calm Calm - N/A   Clear
12:56 PM 100.9 °F - 48.9 °F 17% 29.96 in 10.0 mi SSE 8.1 mph - N/A   Clear
1:56 PM 102.9 °F - 48.9 °F 16% 29.94 in 10.0 mi Variable 5.8 mph - N/A   Clear
2:56 PM 106.0 °F - 46.0 °F 13% 29.92 in 10.0 mi South 5.8 mph - N/A   Clear
3:56 PM 105.1 °F - 44.1 °F 13% 29.90 in 10.0 mi Variable 4.6 mph - N/A   Clear
4:56 PM 107.1 °F - 42.1 °F 11% 29.88 in 10.0 mi Calm Calm - N/A   Clear
5:56 PM 106.0 °F - 41.0 °F 11% 29.87 in 10.0 mi SE 5.8 mph - N/A   Partly Cloudy
6:56 PM 105.1 °F - 41.0 °F 11% 29.87 in 10.0 mi SE 6.9 mph - N/A   Partly Cloudy
7:56 PM 100.0 °F - 52.0 °F 20% 29.88 in 10.0 mi SSW 13.8 mph 24.2 mph N/A   Partly Cloudy
8:56 PM 96.1 °F - 52.0 °F 22% 29.89 in 10.0 mi WSW 8.1 mph - N/A   Clear
9:56 PM 90.0 °F - 50.0 °F 25% 29.91 in 10.0 mi SSE 5.8 mph - N/A   Clear
10:56 PM 89.1 °F - 51.1 °F 27% 29.92 in 10.0 mi SSE 5.8 mph - N/A   Clear
11:56 PM 89.1 °F 86.7 °F 53.1 °F 29% 29.91 in 10.0 mi South 9.2 mph - N/A   Clear